EW5825 Weather Reports


time (UTC)temp
F
wind
direction
speed
knots
gust
knots
rain 1hr
in
rain 24hr
in
rain mn
in
humidity
%
barometer
mb
20260508070002 52 131 1.7 3.5 0.00 0.00 0.00 57 1017.1
20260508060005 52 168 0.0 2.6 0.00 0.00 0.00 59 1017.1
20260508050002 53 63 1.7 1.7 0.00 0.00 0.00 60 1017.2
20260508040004 57 235 0.9 2.6 0.00 0.00 0.00 46 1016.9
20260508030001 57 244 1.7 2.6 0.00 0.00 0.00 45 1016.7
20260508020002 63 186 0.0 2.6 0.00 0.00 0.00 37 1015.9
20260508010000 65 39 0.0 3.5 0.00 0.00 0.00 31 1015.8
20260508000003 68 1 0.9 6.1 0.00 0.00 0.00 26 1016.2
20260507230002 68 333 2.6 7.8 0.00 0.00 0.00 29 1016.5
20260507222727 69 326 5.2 11.3 0.00 0.00 0.00 30 1017.2
20260507200001 64 48 4.3 6.1 0.00 0.00 0.00 29 1018.9
20260507192726 62 319 0.9 7.8 0.00 0.00 0.00 29 1020.0
20260507180005 58 38 2.6 5.2 0.00 0.00 0.00 30 1021.1
20260507172804 54 80 1.7 4.3 0.00 0.00 0.00 34 1021.7
20260507162749 51 324 1.7 5.2 0.00 0.00 0.00 38 1023.0
20260507150012 46 0 0.9 2.6 0.00 0.01 0.00 48 1023.7
20260507140003 40 68 1.7 2.6 0.00 0.09 0.00 64 1023.9
20260507132739 34 248 0.9 2.6 0.00 0.26 0.00 70 1023.6
20260507120005 29 192 0.9 1.7 0.00 0.27 0.00 77 1023.2
20260507110003 31 250 0.9 1.7 0.00 0.27 0.00 72 1023.1
20260507100003 31 234 1.7 1.7 0.00 0.27 0.00 73 1022.8
20260507090003 31 235 0.9 2.6 0.00 0.27 0.00 72 1023.1
20260507080001 33 142 1.7 2.6 0.00 0.27 0.00 68 1022.8